owner,sensor,date,latitude,longitude,vertical_datum,direction_of_sea_water_velocity,sea_water_speed,upward_sea_water_velocity,qcFlag 
TABS,ioos:station:wmo:42044:1,2019-10-16T13:00:00Z,26.1914,-97.0507,-2.0,18.4,15.56,-99999.0,'299999999' 
TABS,ioos:station:wmo:42044:1,2019-10-16T14:00:00Z,26.1914,-97.0507,-2.0,145.9,17.11,-99999.0,'299999999' 
TABS,ioos:station:wmo:42044:1,2019-10-16T15:00:00Z,26.1914,-97.0507,-2.0,61.4,8.35,-99999.0,'299999999' 
TABS,ioos:station:wmo:42044:1,2019-10-16T16:00:00Z,26.1914,-97.0507,-2.0,335.1,5.23,-99999.0,'299999999' 
TABS,ioos:station:wmo:42044:1,2019-10-16T17:00:00Z,26.1914,-97.0507,-2.0,291.2,0.53,-99999.0,'299999999' 
TABS,ioos:station:wmo:42044:1,2019-10-16T18:00:00Z,26.1914,-97.0507,-2.0,129.6,3.92,-99999.0,'299999999' 
TABS,ioos:station:wmo:42044:1,2019-10-16T19:00:00Z,26.1914,-97.0507,-2.0,133.4,5.93,-99999.0,'299999999' 
TABS,ioos:station:wmo:42044:1,2019-10-16T19:30:00Z,26.1914,-97.0507,-2.0,101.3,11.04,-99999.0,'299999999' 
TABS,ioos:station:wmo:42044:1,2019-10-16T21:00:00Z,26.1914,-97.0507,-2.0,156.7,15.4,-99999.0,'299999999' 
TABS,ioos:station:wmo:42044:1,2019-10-16T22:00:00Z,26.1914,-97.0507,-2.0,168.3,18.9,-99999.0,'299999999' 
TABS,ioos:station:wmo:42044:1,2019-10-16T23:00:00Z,26.1914,-97.0507,-2.0,167.9,20.53,-99999.0,'299999999' 
TABS,ioos:station:wmo:42044:1,2019-10-16T23:30:00Z,26.1914,-97.0507,-2.0,175.8,12.94,-99999.0,'299999999' 
TABS,ioos:station:wmo:42044:1,2019-10-17T04:00:00Z,26.1914,-97.0507,-2.0,201.4,36.44,-99999.0,'299999999' 
TABS,ioos:station:wmo:42044:1,2019-10-17T05:00:00Z,26.1914,-97.0507,-2.0,192.2,36.77,-99999.0,'299999999' 
TABS,ioos:station:wmo:42044:1,2019-10-17T06:00:00Z,26.1914,-97.0507,-2.0,161.1,39.49,-99999.0,'299999999' 
TABS,ioos:station:wmo:42044:1,2019-10-17T07:00:00Z,26.1914,-97.0507,-2.0,185.4,39.1,-99999.0,'299999999' 
TABS,ioos:station:wmo:42044:1,2019-10-17T08:00:00Z,26.1914,-97.0507,-2.0,171.2,39.35,-99999.0,'299999999' 
TABS,ioos:station:wmo:42044:1,2019-10-17T08:30:00Z,26.1914,-97.0507,-2.0,188.8,40.71,-99999.0,'299999999' 
TABS,ioos:station:wmo:42044:1,2019-10-17T10:00:00Z,26.1914,-97.0507,-2.0,216.5,26.45,-99999.0,'299999999' 
TABS,ioos:station:wmo:42044:1,2019-10-17T11:00:00Z,26.1914,-97.0507,-2.0,206.4,27.85,-99999.0,'299999999' 
TABS,ioos:station:wmo:42044:1,2019-10-17T12:00:00Z,26.1914,-97.0507,-2.0,196.5,25.34,-99999.0,'299999999' 
TABS,ioos:station:wmo:42044:1,2019-10-17T13:00:00Z,26.1914,-97.0507,-2.0,160.5,29.59,-99999.0,'299999999' 
TABS,ioos:station:wmo:42044:1,2019-10-17T13:30:00Z,26.1914,-97.0507,-2.0,162.7,24.77,-99999.0,'299999999' 
TABS,ioos:station:wmo:42044:1,2019-10-17T14:30:00Z,26.1914,-97.0507,-2.0,170.0,27.11,-99999.0,'299999999' 
TABS,ioos:station:wmo:42044:1,2019-10-17T16:00:00Z,26.1914,-97.0507,-2.0,193.3,26.86,-99999.0,'299999999' 
TABS,ioos:station:wmo:42044:1,2019-10-17T17:00:00Z,26.1914,-97.0507,-2.0,205.3,22.42,-99999.0,'299999999' 
TABS,ioos:station:wmo:42044:1,2019-10-17T18:00:00Z,26.1914,-97.0507,-2.0,187.8,25.15,-99999.0,'299999999' 
TABS,ioos:station:wmo:42044:1,2019-10-17T19:00:00Z,26.1914,-97.0507,-2.0,214.8,16.33,-99999.0,'299999999' 
TABS,ioos:station:wmo:42044:1,2019-10-17T20:00:00Z,26.1914,-97.0507,-2.0,172.7,19.96,-99999.0,'299999999' 
TABS,ioos:station:wmo:42044:1,2019-10-17T21:00:00Z,26.1914,-97.0507,-2.0,237.5,18.49,-99999.0,'299999999' 
TABS,ioos:station:wmo:42044:1,2019-10-17T21:30:00Z,26.1914,-97.0507,-2.0,218.6,19.82,-99999.0,'299999999' 
TABS,ioos:station:wmo:42044:1,2019-10-17T23:00:00Z,26.1914,-97.0507,-2.0,196.2,19.91,-99999.0,'299999999' 
TABS,ioos:station:wmo:42044:1,2019-10-17T23:30:00Z,26.1914,-97.0507,-2.0,228.4,18.96,-99999.0,'299999999' 
TABS,ioos:station:wmo:42044:1,2019-10-18T04:00:00Z,26.1914,-97.0507,-2.0,202.5,38.4,-99999.0,'299999999' 
TABS,ioos:station:wmo:42044:1,2019-10-18T05:00:00Z,26.1914,-97.0507,-2.0,180.6,44.17,-99999.0,'299999999' 
TABS,ioos:station:wmo:42044:1,2019-10-18T06:00:00Z,26.1914,-97.0507,-2.0,185.6,47.06,-99999.0,'299999999' 
TABS,ioos:station:wmo:42044:1,2019-10-18T07:00:00Z,26.1914,-97.0507,-2.0,186.4,55.65,-99999.0,'299999999' 
TABS,ioos:station:wmo:42044:1,2019-10-18T08:00:00Z,26.1914,-97.0507,-2.0,187.6,61.16,-99999.0,'299999999' 
TABS,ioos:station:wmo:42044:1,2019-10-18T09:00:00Z,26.1914,-97.0507,-2.0,174.1,69.32,-99999.0,'299999999' 
TABS,ioos:station:wmo:42044:1,2019-10-18T10:00:00Z,26.1914,-97.0507,-2.0,171.0,69.39,-99999.0,'299999999' 
TABS,ioos:station:wmo:42044:1,2019-10-18T10:30:00Z,26.1914,-97.0507,-2.0,171.3,74.44,-99999.0,'299999999' 
TABS,ioos:station:wmo:42044:1,2019-10-18T12:00:00Z,26.1914,-97.0507,-2.0,181.0,71.64,-99999.0,'299999999' 
TABS,ioos:station:wmo:42044:1,2019-10-18T13:00:00Z,26.1914,-97.0507,-2.0,208.2,57.32,-99999.0,'299999999' 
TABS,ioos:station:wmo:42044:1,2019-10-18T13:30:00Z,26.1914,-97.0507,-2.0,192.9,43.9,-99999.0,'299999999' 
TABS,ioos:station:wmo:42044:1,2019-10-18T15:00:00Z,26.1914,-97.0507,-2.0,245.8,23.39,-99999.0,'299999999' 
TABS,ioos:station:wmo:42044:1,2019-10-18T16:00:00Z,26.1914,-97.0507,-2.0,208.4,27.77,-99999.0,'299999999' 
TABS,ioos:station:wmo:42044:1,2019-10-18T17:00:00Z,26.1914,-97.0507,-2.0,198.6,26.26,-99999.0,'299999999' 
TABS,ioos:station:wmo:42044:1,2019-10-18T18:00:00Z,26.1914,-97.0507,-2.0,191.2,28.24,-99999.0,'299999999' 
TABS,ioos:station:wmo:42044:1,2019-10-18T20:00:00Z,26.1914,-97.0507,-2.0,205.3,36.2,-99999.0,'299999999' 
TABS,ioos:station:wmo:42044:1,2019-10-18T21:00:00Z,26.1914,-97.0507,-2.0,228.4,29.08,-99999.0,'299999999' 
TABS,ioos:station:wmo:42044:1,2019-10-18T22:00:00Z,26.1914,-97.0507,-2.0,261.2,37.2,-99999.0,'299999999' 
TABS,ioos:station:wmo:42044:1,2019-10-18T23:00:00Z,26.1914,-97.0507,-2.0,230.8,38.07,-99999.0,'299999999' 
TABS,ioos:station:wmo:42044:1,2019-10-18T23:30:00Z,26.1914,-97.0507,-2.0,216.0,30.2,-99999.0,'299999999' 
TABS,ioos:station:wmo:42044:1,2019-10-19T03:00:00Z,26.1914,-97.0507,-2.0,283.1,18.16,-99999.0,'299999999' 
TABS,ioos:station:wmo:42044:1,2019-10-19T04:30:00Z,26.1914,-97.0507,-2.0,88.0,11.5,-99999.0,'299999999' 
TABS,ioos:station:wmo:42044:1,2019-10-19T05:30:00Z,26.1914,-97.0507,-2.0,109.4,18.42,-99999.0,'299999999' 
TABS,ioos:station:wmo:42044:1,2019-10-19T06:30:00Z,26.1914,-97.0507,-2.0,152.1,15.4,-99999.0,'299999999' 
TABS,ioos:station:wmo:42044:1,2019-10-19T08:00:00Z,26.1914,-97.0507,-2.0,184.8,13.48,-99999.0,'299999999' 
TABS,ioos:station:wmo:42044:1,2019-10-19T10:00:00Z,26.1914,-97.0507,-2.0,196.0,17.09,-99999.0,'299999999' 
TABS,ioos:station:wmo:42044:1,2019-10-19T12:00:00Z,26.1914,-97.0507,-2.0,201.0,18.18,-99999.0,'299999999' 
TABS,ioos:station:wmo:42044:1,2019-10-19T13:00:00Z,26.1914,-97.0507,-2.0,189.3,18.42,-99999.0,'299999999' 
TABS,ioos:station:wmo:42044:1,2019-10-19T14:00:00Z,26.1914,-97.0507,-2.0,181.9,18.82,-99999.0,'299999999' 
TABS,ioos:station:wmo:42044:1,2019-10-19T15:00:00Z,26.1914,-97.0507,-2.0,183.3,16.72,-99999.0,'299999999' 
TABS,ioos:station:wmo:42044:1,2019-10-19T16:00:00Z,26.1914,-97.0507,-2.0,214.0,22.9,-99999.0,'299999999' 
TABS,ioos:station:wmo:42044:1,2019-10-19T16:30:00Z,26.1914,-97.0507,-2.0,209.9,16.95,-99999.0,'299999999' 
TABS,ioos:station:wmo:42044:1,2019-10-19T18:00:00Z,26.1914,-97.0507,-2.0,240.9,17.76,-99999.0,'299999999' 
TABS,ioos:station:wmo:42044:1,2019-10-19T19:00:00Z,26.1914,-97.0507,-2.0,216.2,13.93,-99999.0,'299999999' 
TABS,ioos:station:wmo:42044:1,2019-10-19T20:00:00Z,26.1914,-97.0507,-2.0,193.5,17.24,-99999.0,'299999999' 
TABS,ioos:station:wmo:42044:1,2019-10-19T21:00:00Z,26.1914,-97.0507,-2.0,155.9,12.42,-99999.0,'299999999' 
TABS,ioos:station:wmo:42044:1,2019-10-19T22:00:00Z,26.1914,-97.0507,-2.0,152.6,4.75,-99999.0,'299999999' 
TABS,ioos:station:wmo:42044:1,2019-10-19T23:00:00Z,26.1914,-97.0507,-2.0,110.1,4.66,-99999.0,'299999999' 
TABS,ioos:station:wmo:42044:1,2019-10-21T22:00:00Z,26.1914,-97.0507,-2.0,212.7,9.07,-99999.0,'299999999' 
TABS,ioos:station:wmo:42044:1,2019-10-21T23:00:00Z,26.1914,-97.0507,-2.0,217.8,12.42,-99999.0,'299999999' 
TABS,ioos:station:wmo:42044:1,2019-10-21T23:30:00Z,26.1914,-97.0507,-2.0,211.2,8.57,-99999.0,'299999999' 
TABS,ioos:station:wmo:42044:1,2019-10-22T04:00:00Z,26.1914,-97.0507,-2.0,222.6,30.62,-99999.0,'299999999' 
TABS,ioos:station:wmo:42044:1,2019-10-22T05:00:00Z,26.1914,-97.0507,-2.0,201.5,31.96,-99999.0,'299999999' 
TABS,ioos:station:wmo:42044:1,2019-10-22T06:00:00Z,26.1914,-97.0507,-2.0,213.0,32.09,-99999.0,'299999999' 
TABS,ioos:station:wmo:42044:1,2019-10-22T07:00:00Z,26.1914,-97.0507,-2.0,213.2,30.76,-99999.0,'299999999' 
TABS,ioos:station:wmo:42044:1,2019-10-22T08:00:00Z,26.1914,-97.0507,-2.0,172.9,29.49,-99999.0,'299999999' 
TABS,ioos:station:wmo:42044:1,2019-10-22T09:00:00Z,26.1914,-97.0507,-2.0,184.4,20.73,-99999.0,'299999999' 
TABS,ioos:station:wmo:42044:1,2019-10-22T10:00:00Z,26.1914,-97.0507,-2.0,143.1,23.14,-99999.0,'299999999' 
TABS,ioos:station:wmo:42044:1,2019-10-22T11:00:00Z,26.1914,-97.0507,-2.0,176.1,19.47,-99999.0,'299999999' 
TABS,ioos:station:wmo:42044:1,2019-10-22T12:00:00Z,26.1914,-97.0507,-2.0,192.7,17.24,-99999.0,'299999999' 
TABS,ioos:station:wmo:42044:1,2019-10-22T13:00:00Z,26.1914,-97.0507,-2.0,183.7,19.22,-99999.0,'299999999' 
TABS,ioos:station:wmo:42044:1,2019-10-22T14:00:00Z,26.1914,-97.0507,-2.0,222.7,14.92,-99999.0,'299999999' 
TABS,ioos:station:wmo:42044:1,2019-10-22T16:00:00Z,26.1914,-97.0507,-2.0,193.5,18.88,-99999.0,'299999999' 
TABS,ioos:station:wmo:42044:1,2019-10-22T16:30:00Z,26.1914,-97.0507,-2.0,175.5,9.79,-99999.0,'299999999' 
TABS,ioos:station:wmo:42044:1,2019-10-22T18:00:00Z,26.1914,-97.0507,-2.0,178.8,18.69,-99999.0,'299999999' 
TABS,ioos:station:wmo:42044:1,2019-10-22T19:00:00Z,26.1914,-97.0507,-2.0,231.1,8.99,-99999.0,'299999999' 
TABS,ioos:station:wmo:42044:1,2019-10-22T20:00:00Z,26.1914,-97.0507,-2.0,255.4,11.1,-99999.0,'299999999' 
TABS,ioos:station:wmo:42044:1,2019-10-22T21:00:00Z,26.1914,-97.0507,-2.0,220.6,9.75,-99999.0,'299999999' 
TABS,ioos:station:wmo:42044:1,2019-10-22T22:30:00Z,26.1914,-97.0507,-2.0,185.9,11.04,-99999.0,'299999999' 
TABS,ioos:station:wmo:42044:1,2019-10-22T23:30:00Z,26.1914,-97.0507,-2.0,217.8,9.45,-99999.0,'299999999' 
TABS,ioos:station:wmo:42044:1,2019-10-23T03:00:00Z,26.1914,-97.0507,-2.0,249.0,7.77,-99999.0,'299999999' 
TABS,ioos:station:wmo:42044:1,2019-10-23T16:30:00Z,26.1914,-97.0507,-2.0,299.8,5.59,-99999.0,'299999999' 
TABS,ioos:station:wmo:42044:1,2019-10-23T17:30:00Z,26.1914,-97.0507,-2.0,243.9,5.32,-99999.0,'299999999' 
TABS,ioos:station:wmo:42044:1,2019-10-23T18:30:00Z,26.1914,-97.0507,-2.0,256.5,6.99,-99999.0,'299999999' 
TABS,ioos:station:wmo:42044:1,2019-10-23T21:00:00Z,26.1914,-97.0507,-2.0,270.6,6.18,-99999.0,'299999999' 
TABS,ioos:station:wmo:42044:1,2019-10-23T22:00:00Z,26.1914,-97.0507,-2.0,269.5,5.98,-99999.0,'299999999' 
TABS,ioos:station:wmo:42044:1,2019-10-23T22:30:00Z,26.1914,-97.0507,-2.0,278.5,5.36,-99999.0,'299999999' 
TABS,ioos:station:wmo:42044:1,2019-10-23T23:30:00Z,26.1914,-97.0507,-2.0,295.8,3.03,-99999.0,'299999999' 
TABS,ioos:station:wmo:42044:1,2019-10-24T04:00:00Z,26.1914,-97.0507,-2.0,284.2,3.84,-99999.0,'299999999' 
TABS,ioos:station:wmo:42044:1,2019-10-24T04:30:00Z,26.1914,-97.0507,-2.0,204.3,6.43,-99999.0,'299999999' 
TABS,ioos:station:wmo:42044:1,2019-10-24T06:00:00Z,26.1914,-97.0507,-2.0,329.0,6.76,-99999.0,'299999999' 
TABS,ioos:station:wmo:42044:1,2019-10-24T07:00:00Z,26.1914,-97.0507,-2.0,257.8,6.27,-99999.0,'299999999' 
TABS,ioos:station:wmo:42044:1,2019-10-24T07:30:00Z,26.1914,-97.0507,-2.0,254.1,7.24,-99999.0,'299999999' 
TABS,ioos:station:wmo:42044:1,2019-10-24T08:30:00Z,26.1914,-97.0507,-2.0,314.2,7.09,-99999.0,'299999999' 
TABS,ioos:station:wmo:42044:1,2019-10-24T09:30:00Z,26.1914,-97.0507,-2.0,265.8,7.21,-99999.0,'299999999' 
TABS,ioos:station:wmo:42044:1,2019-10-24T10:30:00Z,26.1914,-97.0507,-2.0,235.9,15.74,-99999.0,'299999999' 
TABS,ioos:station:wmo:42044:1,2019-10-24T13:30:00Z,26.1914,-97.0507,-2.0,235.4,6.29,-99999.0,'299999999' 
TABS,ioos:station:wmo:42044:1,2019-10-24T14:30:00Z,26.1914,-97.0507,-2.0,223.8,13.71,-99999.0,'299999999' 
TABS,ioos:station:wmo:42044:1,2019-10-24T15:30:00Z,26.1914,-97.0507,-2.0,210.6,9.25,-99999.0,'299999999' 
TABS,ioos:station:wmo:42044:1,2019-10-24T17:30:00Z,26.1914,-97.0507,-2.0,253.7,11.52,-99999.0,'299999999' 
TABS,ioos:station:wmo:42044:1,2019-10-24T19:00:00Z,26.1914,-97.0507,-2.0,120.5,9.56,-99999.0,'299999999' 
TABS,ioos:station:wmo:42044:1,2019-10-24T20:00:00Z,26.1914,-97.0507,-2.0,346.0,3.36,-99999.0,'299999999' 
TABS,ioos:station:wmo:42044:1,2019-10-24T21:00:00Z,26.1914,-97.0507,-2.0,292.3,7.14,-99999.0,'299999999' 
TABS,ioos:station:wmo:42044:1,2019-10-24T22:00:00Z,26.1914,-97.0507,-2.0,326.9,11.11,-99999.0,'299999999' 
TABS,ioos:station:wmo:42044:1,2019-10-24T23:00:00Z,26.1914,-97.0507,-2.0,227.2,15.94,-99999.0,'299999999' 
TABS,ioos:station:wmo:42044:1,2019-10-24T23:30:00Z,26.1914,-97.0507,-2.0,234.5,25.13,-99999.0,'299999999' 
TABS,ioos:station:wmo:42044:1,2019-10-25T04:00:00Z,26.1914,-97.0507,-2.0,212.4,34.0,-99999.0,'299999999' 
TABS,ioos:station:wmo:42044:1,2019-10-25T05:00:00Z,26.1914,-97.0507,-2.0,243.3,33.16,-99999.0,'299999999' 
TABS,ioos:station:wmo:42044:1,2019-10-25T06:00:00Z,26.1914,-97.0507,-2.0,255.7,24.42,-99999.0,'299999999' 
TABS,ioos:station:wmo:42044:1,2019-10-25T07:00:00Z,26.1914,-97.0507,-2.0,226.0,28.54,-99999.0,'299999999' 
TABS,ioos:station:wmo:42044:1,2019-10-25T08:00:00Z,26.1914,-97.0507,-2.0,167.0,21.06,-99999.0,'299999999' 
TABS,ioos:station:wmo:42044:1,2019-10-25T09:00:00Z,26.1914,-97.0507,-2.0,128.3,46.08,-99999.0,'299999999' 
TABS,ioos:station:wmo:42044:1,2019-10-25T10:00:00Z,26.1914,-97.0507,-2.0,197.9,62.19,-99999.0,'299999999' 
TABS,ioos:station:wmo:42044:1,2019-10-25T11:00:00Z,26.1914,-97.0507,-2.0,211.1,63.96,-99999.0,'299999999' 
TABS,ioos:station:wmo:42044:1,2019-10-25T12:00:00Z,26.1914,-97.0507,-2.0,181.9,71.36,-99999.0,'299999999' 
TABS,ioos:station:wmo:42044:1,2019-10-25T13:00:00Z,26.1914,-97.0507,-2.0,152.7,43.48,-99999.0,'299999999' 
TABS,ioos:station:wmo:42044:1,2019-10-25T14:00:00Z,26.1914,-97.0507,-2.0,185.0,57.11,-99999.0,'299999999' 
TABS,ioos:station:wmo:42044:1,2019-10-25T15:00:00Z,26.1914,-97.0507,-2.0,174.3,57.71,-99999.0,'299999999' 
TABS,ioos:station:wmo:42044:1,2019-10-25T16:00:00Z,26.1914,-97.0507,-2.0,218.2,49.59,-99999.0,'299999999' 
TABS,ioos:station:wmo:42044:1,2019-10-25T17:00:00Z,26.1914,-97.0507,-2.0,215.4,54.34,-99999.0,'299999999' 
TABS,ioos:station:wmo:42044:1,2019-10-25T18:00:00Z,26.1914,-97.0507,-2.0,187.6,48.61,-99999.0,'299999999' 
TABS,ioos:station:wmo:42044:1,2019-10-25T19:00:00Z,26.1914,-97.0507,-2.0,223.8,47.8,-99999.0,'299999999' 
TABS,ioos:station:wmo:42044:1,2019-10-25T19:30:00Z,26.1914,-97.0507,-2.0,211.0,56.48,-99999.0,'299999999' 
TABS,ioos:station:wmo:42044:1,2019-10-25T21:00:00Z,26.1914,-97.0507,-2.0,203.3,35.35,-99999.0,'299999999' 
TABS,ioos:station:wmo:42044:1,2019-10-25T22:00:00Z,26.1914,-97.0507,-2.0,189.6,39.2,-99999.0,'299999999' 
TABS,ioos:station:wmo:42044:1,2019-10-25T23:00:00Z,26.1914,-97.0507,-2.0,179.5,41.03,-99999.0,'299999999' 
TABS,ioos:station:wmo:42044:1,2019-10-25T23:30:00Z,26.1914,-97.0507,-2.0,183.3,36.58,-99999.0,'299999999' 
TABS,ioos:station:wmo:42044:1,2019-10-26T04:00:00Z,26.1914,-97.0507,-2.0,173.6,21.47,-99999.0,'299999999' 
TABS,ioos:station:wmo:42044:1,2019-10-26T05:00:00Z,26.1914,-97.0507,-2.0,217.3,20.48,-99999.0,'299999999' 
TABS,ioos:station:wmo:42044:1,2019-10-26T06:00:00Z,26.1914,-97.0507,-2.0,175.5,17.63,-99999.0,'299999999' 
TABS,ioos:station:wmo:42044:1,2019-10-26T07:00:00Z,26.1914,-97.0507,-2.0,164.6,15.91,-99999.0,'299999999' 
TABS,ioos:station:wmo:42044:1,2019-10-26T08:00:00Z,26.1914,-97.0507,-2.0,208.2,15.99,-99999.0,'299999999' 
TABS,ioos:station:wmo:42044:1,2019-10-26T09:00:00Z,26.1914,-97.0507,-2.0,297.1,15.74,-99999.0,'299999999' 
TABS,ioos:station:wmo:42044:1,2019-10-26T10:00:00Z,26.1914,-97.0507,-2.0,190.6,10.95,-99999.0,'299999999' 
TABS,ioos:station:wmo:42044:1,2019-10-26T11:00:00Z,26.1914,-97.0507,-2.0,195.7,10.21,-99999.0,'299999999' 
TABS,ioos:station:wmo:42044:1,2019-10-26T12:00:00Z,26.1914,-97.0507,-2.0,217.2,10.73,-99999.0,'299999999' 
TABS,ioos:station:wmo:42044:1,2019-10-26T13:00:00Z,26.1914,-97.0507,-2.0,195.5,7.88,-99999.0,'299999999' 
TABS,ioos:station:wmo:42044:1,2019-10-26T14:00:00Z,26.1914,-97.0507,-2.0,169.6,10.25,-99999.0,'299999999' 
TABS,ioos:station:wmo:42044:1,2019-10-26T14:30:00Z,26.1914,-97.0507,-2.0,171.5,8.22,-99999.0,'299999999' 
TABS,ioos:station:wmo:42044:1,2019-10-26T15:30:00Z,26.1914,-97.0507,-2.0,196.9,5.64,-99999.0,'299999999' 
TABS,ioos:station:wmo:42044:1,2019-10-26T17:00:00Z,26.1914,-97.0507,-2.0,155.4,5.35,-99999.0,'299999999' 
TABS,ioos:station:wmo:42044:1,2019-10-26T18:00:00Z,26.1914,-97.0507,-2.0,154.6,3.06,-99999.0,'299999999' 
TABS,ioos:station:wmo:42044:1,2019-10-26T18:30:00Z,26.1914,-97.0507,-2.0,212.3,1.93,-99999.0,'299999999' 
TABS,ioos:station:wmo:42044:1,2019-10-26T20:00:00Z,26.1914,-97.0507,-2.0,192.6,2.97,-99999.0,'299999999' 
TABS,ioos:station:wmo:42044:1,2019-10-26T20:30:00Z,26.1914,-97.0507,-2.0,299.4,4.03,-99999.0,'299999999' 
TABS,ioos:station:wmo:42044:1,2019-10-26T22:00:00Z,26.1914,-97.0507,-2.0,240.7,6.83,-99999.0,'299999999' 
TABS,ioos:station:wmo:42044:1,2019-10-26T23:00:00Z,26.1914,-97.0507,-2.0,259.7,6.18,-99999.0,'299999999' 
TABS,ioos:station:wmo:42044:1,2019-10-26T23:30:00Z,26.1914,-97.0507,-2.0,229.4,2.55,-99999.0,'299999999' 
TABS,ioos:station:wmo:42044:1,2019-10-27T03:30:00Z,26.1914,-97.0507,-2.0,210.7,9.12,-99999.0,'299999999' 
TABS,ioos:station:wmo:42044:1,2019-10-27T05:00:00Z,26.1914,-97.0507,-2.0,208.6,11.98,-99999.0,'299999999' 
TABS,ioos:station:wmo:42044:1,2019-10-27T06:00:00Z,26.1914,-97.0507,-2.0,189.4,15.84,-99999.0,'299999999' 
TABS,ioos:station:wmo:42044:1,2019-10-27T07:00:00Z,26.1914,-97.0507,-2.0,178.3,16.46,-99999.0,'299999999' 
TABS,ioos:station:wmo:42044:1,2019-10-27T08:00:00Z,26.1914,-97.0507,-2.0,173.7,15.78,-99999.0,'299999999' 
TABS,ioos:station:wmo:42044:1,2019-10-27T09:00:00Z,26.1914,-97.0507,-2.0,181.2,15.1,-99999.0,'299999999' 
TABS,ioos:station:wmo:42044:1,2019-10-27T09:30:00Z,26.1914,-97.0507,-2.0,176.0,14.76,-99999.0,'299999999' 
TABS,ioos:station:wmo:42044:1,2019-10-27T11:00:00Z,26.1914,-97.0507,-2.0,180.2,14.77,-99999.0,'299999999' 
TABS,ioos:station:wmo:42044:1,2019-10-27T12:00:00Z,26.1914,-97.0507,-2.0,180.3,15.01,-99999.0,'299999999' 
TABS,ioos:station:wmo:42044:1,2019-10-27T13:00:00Z,26.1914,-97.0507,-2.0,191.9,16.18,-99999.0,'299999999' 
TABS,ioos:station:wmo:42044:1,2019-10-27T14:00:00Z,26.1914,-97.0507,-2.0,170.1,17.5,-99999.0,'299999999' 
TABS,ioos:station:wmo:42044:1,2019-10-27T15:00:00Z,26.1914,-97.0507,-2.0,183.0,14.98,-99999.0,'299999999' 
TABS,ioos:station:wmo:42044:1,2019-10-27T16:00:00Z,26.1914,-97.0507,-2.0,181.3,19.14,-99999.0,'299999999' 
TABS,ioos:station:wmo:42044:1,2019-10-27T17:00:00Z,26.1914,-97.0507,-2.0,187.1,17.45,-99999.0,'299999999' 
TABS,ioos:station:wmo:42044:1,2019-10-27T18:00:00Z,26.1914,-97.0507,-2.0,180.9,21.47,-99999.0,'299999999' 
TABS,ioos:station:wmo:42044:1,2019-10-27T19:00:00Z,26.1914,-97.0507,-2.0,178.0,12.28,-99999.0,'299999999' 
TABS,ioos:station:wmo:42044:1,2019-10-27T20:00:00Z,26.1914,-97.0507,-2.0,175.3,17.31,-99999.0,'299999999' 
TABS,ioos:station:wmo:42044:1,2019-10-27T21:00:00Z,26.1914,-97.0507,-2.0,171.4,19.14,-99999.0,'299999999' 
TABS,ioos:station:wmo:42044:1,2019-10-27T22:00:00Z,26.1914,-97.0507,-2.0,161.4,11.36,-99999.0,'299999999' 
TABS,ioos:station:wmo:42044:1,2019-10-27T23:00:00Z,26.1914,-97.0507,-2.0,147.6,8.11,-99999.0,'299999999' 
TABS,ioos:station:wmo:42044:1,2019-10-27T23:30:00Z,26.1914,-97.0507,-2.0,158.5,7.26,-99999.0,'299999999' 
TABS,ioos:station:wmo:42044:1,2019-10-28T04:00:00Z,26.1914,-97.0507,-2.0,171.7,6.97,-99999.0,'299999999' 
TABS,ioos:station:wmo:42044:1,2019-10-28T05:00:00Z,26.1914,-97.0507,-2.0,118.2,6.17,-99999.0,'299999999' 
TABS,ioos:station:wmo:42044:1,2019-10-28T06:00:00Z,26.1914,-97.0507,-2.0,74.3,4.81,-99999.0,'299999999' 
TABS,ioos:station:wmo:42044:1,2019-10-28T07:00:00Z,26.1914,-97.0507,-2.0,89.2,6.47,-99999.0,'299999999' 
TABS,ioos:station:wmo:42044:1,2019-10-28T08:00:00Z,26.1914,-97.0507,-2.0,59.4,6.1,-99999.0,'299999999' 
TABS,ioos:station:wmo:42044:1,2019-10-28T09:00:00Z,26.1914,-97.0507,-2.0,77.1,4.46,-99999.0,'299999999' 
TABS,ioos:station:wmo:42044:1,2019-10-28T10:00:00Z,26.1914,-97.0507,-2.0,50.0,5.97,-99999.0,'299999999' 
TABS,ioos:station:wmo:42044:1,2019-10-28T11:00:00Z,26.1914,-97.0507,-2.0,53.3,2.34,-99999.0,'299999999' 
TABS,ioos:station:wmo:42044:1,2019-10-28T12:00:00Z,26.1914,-97.0507,-2.0,72.0,4.07,-99999.0,'299999999' 
TABS,ioos:station:wmo:42044:1,2019-10-28T13:00:00Z,26.1914,-97.0507,-2.0,91.4,2.85,-99999.0,'299999999' 
TABS,ioos:station:wmo:42044:1,2019-10-28T14:00:00Z,26.1914,-97.0507,-2.0,34.0,6.55,-99999.0,'299999999' 
TABS,ioos:station:wmo:42044:1,2019-10-28T15:00:00Z,26.1914,-97.0507,-2.0,41.2,6.5,-99999.0,'299999999' 
TABS,ioos:station:wmo:42044:1,2019-10-28T16:00:00Z,26.1914,-97.0507,-2.0,46.7,9.01,-99999.0,'299999999' 
TABS,ioos:station:wmo:42044:1,2019-10-28T16:30:00Z,26.1914,-97.0507,-2.0,43.1,9.42,-99999.0,'299999999' 
TABS,ioos:station:wmo:42044:1,2019-10-28T18:00:00Z,26.1914,-97.0507,-2.0,44.5,10.9,-99999.0,'299999999' 
TABS,ioos:station:wmo:42044:1,2019-10-28T18:30:00Z,26.1914,-97.0507,-2.0,32.0,13.05,-99999.0,'299999999' 
TABS,ioos:station:wmo:42044:1,2019-10-28T20:00:00Z,26.1914,-97.0507,-2.0,38.4,14.19,-99999.0,'299999999' 
TABS,ioos:station:wmo:42044:1,2019-10-28T21:00:00Z,26.1914,-97.0507,-2.0,39.5,14.74,-99999.0,'299999999' 
TABS,ioos:station:wmo:42044:1,2019-10-28T22:00:00Z,26.1914,-97.0507,-2.0,34.8,13.46,-99999.0,'299999999' 
TABS,ioos:station:wmo:42044:1,2019-10-28T23:00:00Z,26.1914,-97.0507,-2.0,27.8,12.89,-99999.0,'299999999' 
TABS,ioos:station:wmo:42044:1,2019-10-28T23:30:00Z,26.1914,-97.0507,-2.0,25.9,11.97,-99999.0,'299999999' 
TABS,ioos:station:wmo:42044:1,2019-10-29T04:00:00Z,26.1914,-97.0507,-2.0,22.0,9.09,-99999.0,'299999999' 
TABS,ioos:station:wmo:42044:1,2019-10-29T05:00:00Z,26.1914,-97.0507,-2.0,18.4,11.24,-99999.0,'299999999' 
TABS,ioos:station:wmo:42044:1,2019-10-29T06:00:00Z,26.1914,-97.0507,-2.0,4.3,5.68,-99999.0,'299999999' 
TABS,ioos:station:wmo:42044:1,2019-10-29T07:00:00Z,26.1914,-97.0507,-2.0,353.1,6.12,-99999.0,'299999999' 
TABS,ioos:station:wmo:42044:1,2019-10-29T08:00:00Z,26.1914,-97.0507,-2.0,10.5,6.9,-99999.0,'299999999' 
TABS,ioos:station:wmo:42044:1,2019-10-29T09:00:00Z,26.1914,-97.0507,-2.0,7.2,7.22,-99999.0,'299999999' 
TABS,ioos:station:wmo:42044:1,2019-10-29T10:00:00Z,26.1914,-97.0507,-2.0,326.6,5.1,-99999.0,'299999999' 
TABS,ioos:station:wmo:42044:1,2019-10-29T11:00:00Z,26.1914,-97.0507,-2.0,307.6,4.06,-99999.0,'299999999' 
TABS,ioos:station:wmo:42044:1,2019-10-29T12:00:00Z,26.1914,-97.0507,-2.0,281.2,4.99,-99999.0,'299999999' 
TABS,ioos:station:wmo:42044:1,2019-10-29T13:00:00Z,26.1914,-97.0507,-2.0,305.4,4.25,-99999.0,'299999999' 
TABS,ioos:station:wmo:42044:1,2019-10-29T14:00:00Z,26.1914,-97.0507,-2.0,240.0,2.08,-99999.0,'299999999' 
TABS,ioos:station:wmo:42044:1,2019-10-29T15:00:00Z,26.1914,-97.0507,-2.0,308.7,0.7,-99999.0,'299999999' 
TABS,ioos:station:wmo:42044:1,2019-10-29T16:00:00Z,26.1914,-97.0507,-2.0,276.7,1.96,-99999.0,'299999999' 
TABS,ioos:station:wmo:42044:1,2019-10-29T17:00:00Z,26.1914,-97.0507,-2.0,273.8,1.34,-99999.0,'299999999' 
TABS,ioos:station:wmo:42044:1,2019-10-29T18:00:00Z,26.1914,-97.0507,-2.0,177.4,1.73,-99999.0,'299999999' 
TABS,ioos:station:wmo:42044:1,2019-10-29T19:00:00Z,26.1914,-97.0507,-2.0,16.8,1.45,-99999.0,'299999999' 
TABS,ioos:station:wmo:42044:1,2019-10-29T20:00:00Z,26.1914,-97.0507,-2.0,46.3,1.51,-99999.0,'299999999' 
TABS,ioos:station:wmo:42044:1,2019-10-29T21:00:00Z,26.1914,-97.0507,-2.0,339.6,2.07,-99999.0,'299999999' 
TABS,ioos:station:wmo:42044:1,2019-10-29T22:00:00Z,26.1914,-97.0507,-2.0,3.6,3.35,-99999.0,'299999999' 
TABS,ioos:station:wmo:42044:1,2019-10-29T22:30:00Z,26.1914,-97.0507,-2.0,41.4,2.27,-99999.0,'299999999' 
TABS,ioos:station:wmo:42044:1,2019-10-29T23:30:00Z,26.1914,-97.0507,-2.0,278.3,1.11,-99999.0,'299999999' 